Weather reports worldwide

Advertisment
Andrewsfield, United Kingdom (3684): temperature & dewpoint: 16.02.2019 21:00:00 - 22.02.2019 21:00:00 (GMT)Andrewsfield, United Kingdom (3684): temperature -20cm & temperature -100cm: 16.02.2019 21:00:00 - 22.02.2019 21:00:00 (GMT)Andrewsfield, United Kingdom (3684): wind speed & gusts: 16.02.2019 21:00:00 - 22.02.2019 21:00:00 (GMT)Andrewsfield, United Kingdom (3684): wind direction: 16.02.2019 21:00:00 - 22.02.2019 21:00:00 (GMT)Andrewsfield, United Kingdom (3684): reduced air pressure: 16.02.2019 21:00:00 - 22.02.2019 21:00:00 (GMT)Andrewsfield, United Kingdom (3684): visibility: 16.02.2019 21:00:00 - 22.02.2019 21:00:00 (GMT)Andrewsfield, United Kingdom (3684): precipitation: 16.02.2019 21:00:00 - 22.02.2019 21:00:00 (GMT)
Date & Time tt [°C] td [°C] tt -20cm [°C] tt -100cm [°C] ff [km/h] ff [kn] fx [km/h] fx [kn] dd ppp [hPa] vv [km] rr [mm]
22.02.2019 21:00:00 6,1 6,1 - - 13 7 - - SE 1036,2 0,1 0,0
22.02.2019 20:00:00 5,6 5,6 - - 15 8 - - SE 1035,6 0,1 0,0
22.02.2019 19:00:00 5,7 5,7 - - 15 8 - - ESE 1035,9 0,1 0,0
22.02.2019 18:00:00 6,4 6,3 - - 8 4 - - SE 1035,8 0,1 0,0
22.02.2019 17:00:00 7,7 6,1 - - 9 5 - - ESE 1035,4 5 0,0
22.02.2019 16:00:00 11,4 7,7 - - 15 8 - - ESE 1035,3 8 0,0
22.02.2019 15:00:00 13,4 8,8 - - 15 8 - - SE 1035,6 15 0,0
22.02.2019 14:00:00 13,6 8,6 - - 9 5 - - SE 1035,3 19 0,0
22.02.2019 13:00:00 12,5 9,5 - - 2 1 - - SSE 1035,7 17 0,0
22.02.2019 12:00:00 9,6 8,1 - - 8 4 - - ESE 1035,5 13 0,0
22.02.2019 11:00:00 7,2 7,2 - - 8 4 - - NW 1036,1 5 0,0
22.02.2019 10:00:00 5,8 5,8 - - 2 1 - - WSW 1035,5 0,4 0,0
22.02.2019 09:00:00 3,9 3,9 6,5 6,7 8 4 - - SW 1035,6 0,1 0,0
22.02.2019 08:00:00 3,1 3,1 - - 4 2 - - S 1035,2 0,1 0,0
22.02.2019 07:00:00 3,1 3,1 - - 4 2 - - SSW 1034,4 - 0,0
22.02.2019 06:00:00 3,5 3,5 - - 9 5 - - WSW 1034,2 - 0,0
22.02.2019 05:00:00 3,7 3,7 - - 8 4 - - SW 1033,5 - 0,0
22.02.2019 04:00:00 3,9 3,9 - - 8 4 - - W 1032,9 - 0,2
22.02.2019 03:00:00 2,4 2,3 - - 9 5 - - WSW 1032,7 - 0,0
22.02.2019 02:00:00 3,4 3,3 - - 4 2 - - SSW 1032,4 - 0,0
22.02.2019 01:00:00 4,0 3,8 - - 4 2 - - SW 1032,1 - 0,0
22.02.2019 00:00:00 6,0 5,9 - - 2 1 - - SW 1031,8 0,1 0,0
21.02.2019 23:00:00 6,0 5,5 - - 11 6 - - WSW 1031,3 3,4 0,0
21.02.2019 22:00:00 6,6 5,8 - - 11 6 - - WSW 1030,8 5 0,0
21.02.2019 21:00:00 6,5 5,4 - - 11 6 - - WSW 1030,1 10 0,0
21.02.2019 20:00:00 7,5 5,6 - - 9 5 - - WSW 1029,5 16 0,0
21.02.2019 19:00:00 7,8 5,8 - - 11 6 - - WSW 1028,9 16 0,0
21.02.2019 18:00:00 10,0 6,4 - - 9 5 - - SW 1028,1 18 0,0
21.02.2019 17:00:00 12,4 7,8 - - 13 7 - - WSW 1027,1 30 0,0
21.02.2019 16:00:00 13,8 7,8 - - 16 9 - - SW 1026,7 35 0,0
21.02.2019 15:00:00 14,1 8,4 - - 15 8 - - WSW 1026,4 30 0,0
21.02.2019 14:00:00 13,4 8,3 - - 18 10 - - WSW 1026,1 30 0,0
21.02.2019 13:00:00 13,0 8,9 - - 18 10 - - WSW 1025,9 27 0,0
21.02.2019 12:00:00 11,8 9,0 - - 18 10 - - WSW 1026,0 28 0,0
21.02.2019 11:00:00 10,5 8,2 - - 28 15 - - WSW 1025,4 24 0,0
21.02.2019 10:00:00 9,5 8,0 - - 22 12 - - WSW 1025,1 18 0,0
21.02.2019 09:00:00 8,6 7,6 6,2 6,7 18 10 - - WSW 1024,6 13 0,0
21.02.2019 08:00:00 7,1 6,4 - - 13 7 - - WSW 1024,1 10 0,0
21.02.2019 07:00:00 7,1 6,0 - - 21 11 - - WSW 1023,0 16 0,0
21.02.2019 06:00:00 7,0 5,8 - - 15 8 - - WSW 1022,6 13 0,0
21.02.2019 05:00:00 7,2 5,8 - - 13 7 - - SW 1022,3 12 0,0
21.02.2019 04:00:00 6,9 5,7 - - 13 7 - - SSW 1022,3 12 0,0
21.02.2019 03:00:00 6,5 5,4 - - 16 9 - - SW 1022,4 13 0,0
21.02.2019 02:00:00 6,0 4,9 - - 13 7 - - SSW 1022,9 17 0,0
21.02.2019 01:00:00 6,3 5,1 - - 16 9 - - SSW 1022,5 24 0,0
21.02.2019 00:00:00 6,2 4,9 - - 16 9 - - SW 1022,3 26 0,0
20.02.2019 23:00:00 7,1 5,5 - - 16 9 - - SW 1021,9 28 0,0
20.02.2019 22:00:00 7,1 5,7 - - 16 9 - - SW 1021,5 24 0,0
20.02.2019 21:00:00 6,6 4,9 - - 15 8 - - SSW 1021,6 26 0,0
20.02.2019 20:00:00 7,1 5,0 - - 11 6 - - SSW 1021,1 30 0,0
20.02.2019 19:00:00 8,0 4,3 - - 9 5 - - SSW 1020,5 40 0,0
20.02.2019 18:00:00 8,9 4,2 - - 9 5 - - SSW 1020,3 55 0,0
20.02.2019 17:00:00 9,9 4,2 - - 21 11 - - SW 1019,8 60 0,0
20.02.2019 16:00:00 11,4 4,8 - - 22 12 - - WSW 1019,6 55 0,0
20.02.2019 15:00:00 11,2 4,9 - - 28 15 48 26 WSW 1019,7 60 -
20.02.2019 14:00:00 11,5 4,7 - - 29 16 48 26 SW 1019,6 65 -
20.02.2019 13:00:00 10,9 4,6 - - 31 17 - - SW 1019,8 60 0,0
20.02.2019 12:00:00 9,9 5,3 - - 28 15 - - SW 1020,0 40 0,0
20.02.2019 11:00:00 9,7 5,4 - - 24 13 - - SW 1019,7 35 0,0
20.02.2019 10:00:00 8,5 6,1 - - 16 9 - - SSW 1019,3 22 0,0
20.02.2019 09:00:00 7,9 5,8 5,9 6,7 22 12 - - SSW 1019,1 19 0,0
20.02.2019 08:00:00 6,6 5,4 - - 16 9 - - SSW 1018,7 12 0,0
20.02.2019 07:00:00 6,3 5,0 - - 13 7 - - SSW 1018,2 14 0,0
20.02.2019 06:00:00 6,1 4,7 - - 13 7 - - SSW 1017,9 17 0,0
20.02.2019 05:00:00 6,0 4,4 - - 13 7 - - SSW 1017,8 25 0,0
20.02.2019 04:00:00 5,8 4,3 - - 11 6 - - SSW 1018,0 30 0,0
20.02.2019 03:00:00 5,5 4,2 - - 11 6 - - SSW 1018,2 30 0,0
20.02.2019 02:00:00 5,4 4,6 - - 9 5 - - S 1018,9 20 0,0
20.02.2019 01:00:00 5,7 4,6 - - 15 8 - - SSW 1018,8 21 0,0
20.02.2019 00:00:00 5,7 4,4 - - 15 8 - - SSW 1018,8 25 0,0
19.02.2019 23:00:00 5,8 4,1 - - 11 6 - - SSW 1018,9 27 0,0
19.02.2019 22:00:00 6,0 4,0 - - 13 7 - - SSW 1018,9 26 0,0
19.02.2019 21:00:00 6,3 3,4 - - 11 6 - - SSW 1018,9 35 0,0
19.02.2019 20:00:00 6,9 3,3 - - 13 7 - - SSW 1018,7 40 0,0
19.02.2019 19:00:00 7,2 3,4 - - 9 5 - - SSW 1018,6 45 0,0
19.02.2019 18:00:00 7,3 2,9 - - 13 7 - - WSW 1018,2 65 0,0
19.02.2019 17:00:00 8,7 2,9 - - 15 8 - - WSW 1018,1 55 0,0
19.02.2019 16:00:00 9,0 2,6 - - 18 10 - - W 1018,1 50 0,0
19.02.2019 15:00:00 9,2 2,8 - - 21 11 - - WSW 1018,5 55 0,0
19.02.2019 14:00:00 10,6 3,9 - - 26 14 - - WSW 1018,5 50 0,0
19.02.2019 13:00:00 9,8 4,1 - - 28 15 - - WSW 1018,7 45 0,0
19.02.2019 12:00:00 9,1 4,3 - - 28 15 - - W 1018,9 40 0,0
19.02.2019 11:00:00 8,1 5,2 - - 22 12 - - W 1018,9 29 0,0
19.02.2019 10:00:00 6,4 4,6 - - 18 10 - - WSW 1019,0 22 0,0
19.02.2019 09:00:00 4,5 3,8 5,9 6,7 15 8 - - WSW 1018,6 15 0,0
19.02.2019 08:00:00 2,9 2,6 - - 15 8 - - WSW 1018,2 12 0,0
19.02.2019 07:00:00 2,7 2,3 - - 18 10 - - W 1017,4 13 0,0
19.02.2019 06:00:00 2,6 2,1 - - 16 9 - - WSW 1016,8 14 0,0
19.02.2019 05:00:00 2,8 2,3 - - 16 9 - - WSW 1016,6 16 0,0
19.02.2019 04:00:00 3,0 2,4 - - 21 11 - - WSW 1016,3 18 0,0
19.02.2019 03:00:00 3,0 2,3 - - 16 9 - - WSW 1016,4 20 0,0
19.02.2019 02:00:00 3,5 2,7 - - 18 10 - - WSW 1016,3 24 0,0
19.02.2019 01:00:00 3,6 2,7 - - 18 10 - - WSW 1016,0 25 0,0
19.02.2019 00:00:00 3,8 2,8 - - 15 8 - - WSW 1015,7 27 0,0
18.02.2019 23:00:00 3,7 2,8 - - 15 8 - - WSW 1015,8 24 0,0
18.02.2019 22:00:00 4,5 3,5 - - 18 10 - - WSW 1015,4 35 0,0
18.02.2019 21:00:00 5,3 4,0 - - 16 9 - - SW 1015,1 45 0,0
18.02.2019 20:00:00 6,3 5,2 - - 16 9 - - WSW 1014,8 35 0,0
18.02.2019 19:00:00 7,3 5,9 - - 18 10 - - SW 1014,3 40 0,0
18.02.2019 18:00:00 7,3 6,0 - - 13 7 - - SW 1013,9 40 0,0
18.02.2019 17:00:00 7,5 6,1 - - 15 8 - - SSW 1013,7 50 0,0
18.02.2019 16:00:00 7,8 6,4 - - 13 7 - - SSW 1013,8 65 0,0
18.02.2019 15:00:00 7,5 6,1 - - 16 9 - - SSW 1013,9 30 0,4
18.02.2019 14:00:00 7,8 6,2 - - 21 11 - - SW 1014,4 12 0,2
18.02.2019 13:00:00 8,5 6,6 - - 18 10 - - WSW 1014,6 29 0,0
18.02.2019 12:00:00 8,6 7,7 - - 15 8 - - SW 1014,7 8 0,0
18.02.2019 11:00:00 8,3 7,5 - - 16 9 - - SSW 1015,0 9 0,0
18.02.2019 10:00:00 8,0 7,2 - - 15 8 - - SSW 1015,4 9 0,0
18.02.2019 09:00:00 7,4 7,1 6,0 6,7 15 8 - - SW 1015,5 7 0,0
18.02.2019 08:00:00 6,5 6,3 - - 9 5 - - SSW 1015,4 7 0,0
18.02.2019 07:00:00 6,3 6,0 - - 9 5 - - S 1015,1 7 0,0
18.02.2019 06:00:00 6,5 6,0 - - 8 4 - - S 1015,1 11 0,0
18.02.2019 05:00:00 7,1 6,6 - - 9 5 - - S 1015,3 13 0,0
18.02.2019 04:00:00 7,3 6,7 - - 9 5 - - S 1015,3 13 0,0
18.02.2019 03:00:00 7,7 6,5 - - 5 3 - - S 1015,6 19 0,0
18.02.2019 02:00:00 8,8 7,0 - - 11 6 - - SSW 1015,9 24 0,0
18.02.2019 01:00:00 9,2 8,2 - - 9 5 - - S 1016,1 14 0,0
18.02.2019 00:00:00 9,2 8,3 - - 9 5 - - S 1015,9 11 0,0
17.02.2019 23:00:00 9,2 8,1 - - 8 4 - - S 1015,8 13 0,0
17.02.2019 22:00:00 8,0 7,0 - - 8 4 - - SSE 1016,0 13 0,0
17.02.2019 21:00:00 8,5 6,9 - - 8 4 - - S 1015,8 16 0,0
17.02.2019 20:00:00 8,7 6,5 - - 15 8 - - SSW 1015,7 20 0,0
17.02.2019 19:00:00 9,8 7,5 - - 21 11 - - SW 1015,4 22 0,0
17.02.2019 18:00:00 10,5 7,7 - - 22 12 - - SW 1014,8 27 0,0
17.02.2019 17:00:00 11,9 7,6 - - 18 10 - - SSW 1014,1 30 0,0
17.02.2019 16:00:00 12,8 7,2 - - 21 11 - - SSW 1013,7 30 0,0
17.02.2019 15:00:00 13,4 6,6 - - 21 11 - - SSW 1013,7 30 0,0
17.02.2019 14:00:00 13,7 6,1 - - 21 11 - - SSW 1013,9 35 0,0
17.02.2019 13:00:00 12,9 6,5 - - 16 9 - - SSW 1014,2 40 0,0
17.02.2019 12:00:00 10,5 6,2 - - 18 10 - - S 1014,4 29 0,0
17.02.2019 11:00:00 8,0 5,4 - - 9 5 - - S 1015,1 20 -
17.02.2019 10:00:00 7,4 5,9 - - 9 5 - - S 1015,4 12 0,0
17.02.2019 09:00:00 5,4 4,9 5,7 6,5 8 4 - - SSE 1015,9 3,5 0,0
17.02.2019 08:00:00 4,1 4,1 - - 15 8 - - SE 1016,2 1,4 0,0
17.02.2019 07:00:00 3,8 3,5 - - 13 7 - - SSE 1016,5 1,9 0,0
17.02.2019 06:00:00 4,2 4,2 - - 8 4 - - SSE 1016,5 2,0 0,0
17.02.2019 05:00:00 3,3 3,3 - - 11 6 - - SE 1017,1 0,9 0,0
17.02.2019 04:00:00 4,0 4,0 - - 11 6 - - SSE 1017,8 0,1 0,0
17.02.2019 03:00:00 5,2 5,2 - - 9 5 - - SSE 1018,7 0,1 0,0
17.02.2019 02:00:00 6,2 6,1 - - 8 4 - - SSE 1019,6 0,1 0,0
17.02.2019 01:00:00 7,3 7,3 - - 8 4 - - S 1020,3 0,2 0,0
17.02.2019 00:00:00 7,8 7,8 - - 11 6 - - SSW 1021,0 0,7 0,0
16.02.2019 23:00:00 7,4 7,1 - - 8 4 - - S 1021,2 2,1 0,0
16.02.2019 22:00:00 8,7 8,2 - - 9 5 - - S 1021,4 3,9 0,0
16.02.2019 21:00:00 9,9 9,0 - - 9 5 - - S 1021,7 8 0,0

tt = temperature
td = dewpoint
tt -20cm = temperature -20cm
tt -100cm = temperature -100cm
ff = wind speed
fx = gusts
dd = wind direction
ppp = reduced air pressure
vv = visibility
rr = precipitation

Next stations